Weather observations for the past three days for
McAllen, Miller International Airport
Imperial (Metric)
Date Time (cdt) Wind (mph) Vis. (mi.) Weather Sky Cond. Temperature (ºF) Relative Humidity Wind Chill (°F) Heat Index (°F) Pressure Precipitation (in)
Air Dwpt 6 hour altimeter (in) sea level (mb) 1 hr 3 hr 6 hr
Max. Min.
15 20:53 E 14 10.00 Fair CLR 89.1 71.1 55% 95 29.8 1009.0
15 19:53 E 18 10.00 Fair CLR 91 71.1 52% 98 29.79 1008.4
15 18:53 E 16 G 28 10.00 Fair CLR 95 71.1 100.9 93.9 46% 102 29.77 1007.9
15 17:53 E 17 G 24 10.00 Mostly Cloudy BKN070 BKN080 96.1 71.1 44% 104 29.77 1008.0
15 16:53 E 14 G 22 10.00 Mostly Cloudy FEW060 SCT080 BKN095 98.1 72 43% 107 29.78 1008.2
15 15:53 E 16 G 22 10.00 Mostly Cloudy SCT060 BKN090 98.1 72 43% 107 29.79 1008.6
15 14:53 E 9 G 22 10.00 A Few Clouds FEW065 99 72 42% 108 29.81 1009.3
15 13:53 S 7 10.00 A Few Clouds FEW055 97 73 46% 107 29.84 1010.3
15 12:53 Calm 10.00 Mostly Cloudy FEW046 BKN060 93.9 73 95 79 51% 103 29.86 1011.0
15 11:53 SW 5 10.00 Mostly Cloudy BKN043 BKN055 91.9 73 54% 101 29.88 1011.5
15 10:53 S 7 G 23 10.00 Mostly Cloudy BKN035 BKN044 91.9 75 58% 103 29.88 1011.7
15 09:53 SE 7 G 17 10.00 Fair CLR 88 75.9 68% 99 29.89 1012.1
15 08:53 SE 6 10.00 Fair CLR 84.9 75.9 75% 94 29.89 1012.1
15 07:53 SE 5 10.00 Fair CLR 82 75.9 82% 89 29.88 1011.8
15 06:53 E 5 10.00 Fair CLR 79 75 81 79 88% 83 29.87 1011.4
15 05:53 E 5 10.00 Mostly Cloudy BKN023 79 75 88% 83 29.88 1011.6
15 04:53 SE 3 10.00 Fair CLR 80.1 73.9 82% 85 29.88 1011.6
15 03:53 SE 3 10.00 Fair CLR 80.1 73.9 82% 85 29.88 1011.7
15 02:53 Calm 10.00 Fair CLR 81 73 77% 86 29.89 1012.0
15 01:53 Calm 10.00 Fair CLR 80.1 73 79% 84 29.9 1012.3
15 00:53 S 3 10.00 Fair CLR 82 73 95 82 74% 87 29.9 1012.4
14 23:53 SE 7 10.00 Fair CLR 84 73 70% 90 29.9 1012.4
14 22:53 E 12 10.00 Fair CLR 84.9 73 68% 92 29.89 1011.8
14 21:53 E 13 10.00 Fair CLR 87.1 70 57% 92 29.87 1011.3
14 20:53 E 16 10.00 Fair CLR 89.1 70 53% 94 29.85 1010.5
14 19:53 E 18 G 24 10.00 Fair CLR 91.9 70 49% 98 29.83 1009.8
14 18:53 E 15 G 25 10.00 Fair CLR 95 71.1 102.9 95 46% 102 29.81 1009.4
14 17:53 E 16 G 23 10.00 A Few Clouds FEW065 98.1 70 40% 105 29.81 1009.1
14 16:53 E 13 10.00 Partly Cloudy SCT065 SCT080 99 72 42% 108 29.81 1009.2
14 15:53 E 8 10.00 Partly Cloudy SCT075 100 70 38% 108 29.81 1009.3
14 14:53 NE 6 10.00 Mostly Cloudy SCT070 BKN085 100 71.1 39% 109 29.84 1010.1
14 13:53 E 7 10.00 Partly Cloudy FEW060 SCT070 100 72 41% 110 29.86 1010.8
14 12:53 Calm 10.00 Fair CLR 97 73 97 80.1 46% 107 29.88 1011.7
14 11:53 Calm 10.00 Fair CLR 93.9 73.9 52% 104 29.9 1012.4
14 10:53 Vrbl 3 10.00 Fair CLR 91.9 75 58% 103 29.92 1012.9
14 09:53 E 3 10.00 Partly Cloudy SCT024 88 75.9 68% 99 29.92 1012.9
14 08:53 E 5 10.00 Fair CLR 84.9 75.9 75% 94 29.92 1013.0
14 07:53 E 5 10.00 A Few Clouds FEW025 82 75.9 82% 89 29.91 1012.6
14 06:53 E 3 10.00 Mostly Cloudy BKN031 80.1 75 82.9 80.1 85% 85 29.9 1012.2
14 05:53 SE 3 10.00 A Few Clouds FEW022 80.1 75 85% 85 29.88 1011.6
14 04:53 SE 3 10.00 Fair CLR 80.1 75 85% 85 29.88 1011.4
14 03:53 S 3 10.00 Fair CLR 81 75 82% 87 29.88 1011.6
14 02:53 SE 5 10.00 Fair CLR 82 75 79% 89 29.88 1011.6
14 01:53 SE 7 10.00 Fair CLR 82 75 79% 89 29.89 1011.9
14 00:53 SE 8 10.00 Fair CLR 82.9 73.9 97 82.9 74% 89 29.9 1012.3
13 23:53 SE 10 10.00 Fair CLR 84.9 73.9 70% 92 29.9 1012.4
13 22:53 E 13 10.00 Fair CLR 86 73.9 67% 94 29.89 1011.9
13 21:53 E 12 10.00 Fair CLR 88 73 61% 96 29.87 1011.3
13 20:53 E 16 10.00 Fair CLR 90 70 52% 95 29.85 1010.6
13 19:53 E 18 10.00 Fair CLR 93 70 47% 99 29.82 1009.7
13 18:53 E 17 G 26 10.00 Mostly Cloudy FEW060 BKN080 96.1 72 104 96.1 46% 105 29.81 1009.1
13 17:53 E 17 G 23 10.00 Fair CLR 100 73 42% 111 29.8 1008.6
13 16:53 E 13 10.00 Mostly Cloudy BKN075 102.9 70 35% 111 29.8 1008.9
13 15:53 NE 7 10.00 Fair CLR 102 71.1 37% 111 29.82 1009.5
13 14:53 Calm 10.00 A Few Clouds FEW070 100.9 72 39% 111 29.84 1010.3
13 13:53 Calm 10.00 Fair CLR 99 73 43% 110 29.87 1011.0
13 12:53 NE 7 10.00 Fair CLR 97 73 98.1 80.1 46% 107 29.88 1011.8
13 11:53 E 7 10.00 Fair CLR 95 73 49% 105 29.9 1012.3
13 10:53 S 9 10.00 A Few Clouds FEW034 91 73 56% 100 29.91 1012.7
13 09:53 S 10 10.00 Partly Cloudy SCT026 89.1 75 63% 99 29.91 1012.7
13 08:53 SE 9 10.00 Fair CLR 86 77 75% 97 29.91 1012.7
13 07:53 SE 6 10.00 A Few Clouds FEW024 FEW110 82 77 85% 90 29.9 1012.1
13 06:53 SE 6 10.00 Fair CLR 80.1 75.9 82.9 79 87% 85 29.87 1011.3
13 05:53 SE 3 10.00 Partly Cloudy FEW023 SCT100 81 75.9 85% 87 29.86 1010.9
13 04:53 SE 5 10.00 Partly Cloudy FEW021 SCT120 81 75.9 85% 87 29.86 1010.9
13 03:53 SE 7 10.00 Mostly Cloudy BKN100 82 75.9 82% 89 29.85 1010.7
13 02:53 SE 9 10.00 Mostly Cloudy BKN110 82 75.9 82% 89 29.86 1010.9
13 01:53 SE 12 10.00 Fair CLR 82.9 75.9 79% 91 29.87 1011.3
13 00:53 SE 12 10.00 Fair CLR 82.9 75.9 97 82.9 79% 91 29.88 1011.8
12 23:53 SE 13 10.00 Fair CLR 84.9 73.9 70% 92 29.89 1011.8
12 22:53 SE 14 10.00 Fair CLR 86 73.9 67% 94 29.88 1011.6
12 21:53 SE 14 10.00 Fair CLR 89.1 73 59% 97 29.85 1010.6
Date Time (cdt) Wind (mph) Vis. (mi.) Weather Sky Cond. Air Dwpt Max. Min. Relative Humidity Wind Chill (°F) Heat Index (°F) altimeter (in) sea level (mb) 1 hr 3 hr 6 hr
6 hour
Temperature (ºF) Pressure Precipitation (in)